Погода в Бирзаи

Погода в Бирзаи : погода сейчас, прогноз погоды и архив. Всё, что Вы хотите узнать о погоде в Бирзаи!

Поиск расширенной информации на нашем сайте:

Полезная информация:

Другие новости

Новости СМИ2

Главная страница сайта

Новости сайта

03.07.2017

Напоминаем, что на нашем специализированном сайте Метеоцентр.Азия вы можете получить высокодетализированные автоматические прогнозы погоды по пунктам России, СНГ и мира в авиационном формате (включающие направление и скорость ветра, видимость, явления погоды, количество и форму облачности, нижнюю и верхнюю границу облачности).

Рекомендуем:

Погода в Бирзаи - сегодня

Время (UTC), дата Ветер
(°,м/с) 
Видим.   Явления Облачность Т
(°С)
Тd
(°С)
f(%) Тe
(°С)
Pmin
(гПа)
dP
(гПа)
Po
(мм)
O2
(г/м3)
Тmin Tmax R s Состояние
почвы
06 19.03.19 230 (ЮЗ) 4-7{08}  17000 м  слаб. дождь  10/10 360 м 
[Frnb|Ns]
+2.6 +1.1 90 +1  1011.1  1.4  753  300  +2.5    0.5    влажная 
09 19.03.19 250 (З) 3-7{08}  4500 м  слаб. ливневой дождь со снегом  10/8 1320 м кучево-дожд., средняя 
[Cb cap|As op]
+1.3 +0.4 94 1013.2  2.1  754  302           
12 19.03.19 270 (З) 5-9{12}  14000 м  слаб. ливневой дождь со снегом  9/9 840 м кучево-дожд. 
[Cb cap]
+2 +0.9 92 -1  1015.3  2.1  756  302         
15 19.03.19 280 (З) 4-8{11}  8000 м  слаб. ливневой дождь  9/9 600 м кучево-дожд. 
[Cb cap]
+3.1 +0.9 85 +1  1017.6  2.3  757  302           
18 19.03.19 280 (З) 3-6{09}  19000 м  {ливн. осадки}  10/10 540 м 
[Sc]
+2.5 +0.6 87 +1  1020.4  2.8  760  303    +3.9     
21 19.03.19 270 (З) 3-5{09}  19000 м    10/10 870 м 
[Sc]
+1.4 -0.2 89 1022.6  2.1  761  305           
00 20.03.19 300 (СЗ) 3-5{09}  20000 м  {ливн. осадки}  10/10 1020 м 
[Sc]
+0.5 -0.6 92 -1  1024  1.4  762  307      0.0     
03 20.03.19 270 (З) 3-4{06}  20000 м    10/10 1170 м 
[Sc]
+0.2 -1.7 87 -2  1025.2  1.2  763  307           
06 20.03.19 240 (ЮЗ) 3-5{06}  18000 м    4/4 1000 м 
[Sc]
+0 -1.9 87 -2  1026.3  764  308  -0.1    0.0    влажная 
09 20.03.19 240 (ЮЗ) 4-7{07}  19000 м    3/3 600 м верхняя 
[Sc|Ci fib]
+4.6 -0.8 68 +3  1026.5  0.4  764  303           
12 20.03.19 250 (З) 4-9{09}  19000 м    9/8 870 м верхняя 
[Cu Sc|Ci fib]
+5.9 +0.2 67 +4  1025.5  -1  763  301           
15 20.03.19 230 (ЮЗ) 4-8{10}  20000 м    10/6 1000 м средняя 
[Sc|Ac As]
+5.9 -0.1 65 +4  1024  -1.5  762  301           
18 20.03.19 240 (ЮЗ) 6-14{14}  19000 м  слаб. дождь  10/10 840 м 
[Ns]
+4.4 +0.1 74 +2  1022.1  -1.9  761  302    +6.8  0.0     
21 20.03.19 270 (З) 5-10{14}  10 км  слаб. дождь  10/10 240 м 
[Frnb|Ns]
+3.6 +2.3 91 +1  1021.5  -0.6  760  302           
00 21.03.19 290 (З) 3-5{11}  10 км  {дождь}  10/10 270 м 
[Sc]
+4 +3.2 95 +3  1022.6  1.1  761  302         
03 21.03.19 260 (З) 2-4{05}  8000 м  дымка  10/10 450 м 
[St]
+3.7 +2.9 94 +3  1023.7  1.1  762  303           
06 21.03.19 260 (З) 3-5{05}  7000 м  дымка  9/9 270 м 
[St]
+3.3 +2.6 95 +2  1024.9  1.1  763  303  +2.3      влажная 
09 21.03.19 230 (ЮЗ) 3-7{07}  18000 м    10/5 300 м средняя 
[St|Ac As]
+5.5 +3.7 88 +4  1025.1  0.3  763  301           
12 21.03.19 240 (ЮЗ) 5-8{10}  19000 м    10/5 720 м средняя 
[Cu hum|Ac und]
+9.6 +4.2 69 +8  1023.3  -1.7  762  296           
15 21.03.19 240 (ЮЗ) 3-8{12}  18000 м  слаб. дождь  10/10 700 м 
[Sc]
+7.5 +4.8 83 +7  1021.4  -1.9  760  297           
18 21.03.19 240 (ЮЗ) 4-8{11}  9000 м  в посл. час ливневой дождь  10/10 180 м 
[St]
+6.6 +5.5 93 +5  1019.2  -2.2  759  298    +9.9  0.0     
21 21.03.19 260 (З) 5-9{10}  5000 м  слаб. дождь{ливн. осадки}  10/10 150 м 
[Frnb|Ns]
+6.7 +5.9 95 +5  1018.5  -0.7  758  297           
00 22.03.19 280 (З) 4-7{11}  4900 м  дымка{ливн. осадки, дождь}  10/10 240 м 
[St]
+7.2 +6.1 93 +6  1018.6  0.1  758  297      0.8     
03 22.03.19 330 (СЗ) 4-8{11}  20000 м  {ливн. осадки}  10/0 средняя 
[Ac trans]
+5 +1.1 76 +3  1022.1  3.4  761  301           
06 22.03.19 320 (СЗ) 5-8{10}  20000 м  {ливн. осадки}  ясно 
+3.4 -1.2 72 +1  1025.9  3.7  764  304  +3.1      влажная 
Время (UTC), дата Ветер
(°,м/с) 
Видим.   Явления Облачность Т
(°С)
Тd
(°С)
f(%) Тe
(°С)
Pmin
(гПа)
dP
(гПа)
Po
(мм)
O2
(г/м3)
Тmin Tmax R s Состояние
почвы

Для получения пояснительной информации подведите курсор к названию столбца.

ПОГОДА в Бирзаи - архив

Всё, что Вы хотите узнать о погоде в Бирзаи - удобно и подробно!

Выберите нужную дату (начиная с 1 января 2018* года) и нажмите кнопку "Найти".
Будут отображены архивные сводки погоды по пункту Бирзаи, начиная с указанной даты.


Отображать данные в формате CSV (для использования в таблицах Excel)


Внимание! Наш архив погоды предназначен исключительно для личного некоммерческого использования в познавательных целях. Если Вам необходимы официальные справки о состоянии погоды (для производственных, юридических, коммерческих и т.п. целей), обращайтесь в органы Росгидромета.

*Примечание: данная дата относится к архиву по метеостанциям СССР (Россия, СНГ, Балтия).
Архив по метеостанциям Зарубежной Европы и Азии (кроме Китая) хранится 10 дней, по другим регионам земного шара (Китай, Африка, Америка, Австралия, Океания) - 1 день.

Бирзаи - район местоположения метеостанции


Название, широта, долгота, высота метеостанции:
Бирзаи 56.2°ш. 24.8°д. 62 м над ур. моря [Литва]

Дополнительная информация

В oтличие oт бoльшинства пoгoдных сайтoв мы публикуем пoдрoбную метеoинфoрмацию в детальнoм прoфессиoнальнoм фoрмате.

Характеристики температуры и влажнoсти вoздуха измеряются на высoте 2 м в тени вдали oт зданий и деревьев.
Скoрoсть ветра измеряется на высoте 10 м (на урoвне рoста челoвека скoрoсть ветра ниже в 1.5-2 раза). Если метеoстанция нахoдится в гoрoде или в лесу, тo скoрoсть ветра занижена на 2-4 м/с пo сравнению с oткрытым местoм. Скoрoсть ветра над акватoриями крупных рек и oзёр, а также на вершинах хoлмoв на 2-5 м/с выше, чем в oбычных услoвиях.
Атмoсфернoе давление в разных тoчках местнoсти мoжет значительнo oтличаться oт давления на метеoстанции, в зависимoсти oт услoвий рельефа (при пoдъёме на 10 м давление пoнижается примернo на 1 мм рт.ст.).